STARLINK-32375, 61070

Orbit data source: Space-Track

STARLINK-32375, 61070 is a payload satellite owned by SpaceX/Seattle (US) in LEO that was launched on Fri, 13 Sep 2024 UTC via an FALCON 9 launch vehicle from the Air Force Western Test Range (AFWTR). Payload-class satellites include a variety of spacecraft equipped with specific instruments for various scientific and technological missions. These include communications satellites like Starlink; space stations such as the ISS; scientific satellites like the Hubble; Earth observation satellites from companies like Planet Labs, Umbra, and HawkEye 360; GPS; miniature CubeSats for education and research; and military/defense satellites.

Loading next visibility...
Identifier
61070, 2024-164W
Orbit
LEO
Country
Flag of USUS
Related business
Manufacturer
SpaceX/Seattle
Mission
Operational Commercial Communications
Bus & Motor
STARLINK V2M, Unknown motor
Mass
730 kg wet, ~700 kg dry
Launch date (UTC)
2024-09-13 (2 years ago)
Launch vehicle
FALCON 9
Launch site
Air Force Western Test Range (AFWTR)
Object type
Payload
Rocket body
Debris
Shape & HBR
Box + 2 Pan, 17.7 m
Radar Cross Section
33.884 m², Large (>1 m²)

Expand to show TLE details & history
Last TLE update: 18 hours ago

TLE from 18 hours ago
0 STARLINK-32375
1 61070U 24164W   26171.15709985 -.00000276  00000-0  27977-5 0  9995
2 61070  53.1626 335.3161 0001308  80.3939 279.7209 15.30197070 99169
Epoch: 2026-06-20T03:46Z
TLE epoch observation values (Epoch: 2026-06-20T03:46:13.427Z)
Latitude
-0.00004°
Longitude
10.38437°
Altitude
475.973 km
Speed
7.629 km/s
True Right ascension
22h 21m 15s
True Declination
0° 00' 00"
Sunlit
Object was in partial shadow at epoch
Visualization orbit readout
Latitude
Unknown
Longitude
Unknown
Altitude
Unknown
Speed
Unknown
Apparent Right ascension
Unknown
Apparent Declination
Unknown
Sunlit
N/A
Visualization observer readout
Local Sidereal Time
08:33:42
Azimuth
Unknown
Elevation
Unknown
Doppler factor
Unknown
Orbital elements
Apogee altitude
476.376 km
Perigee altitude
474.583 km
Semi-major axis
6,853.617 km
Eccentricity
0.00013
Inclination
53.1626°
RAAN
335.3161°
Arg. of periapsis
80.3939°
True anomaly
279.70613°
Mean anomaly
279.7209°
Eccentric anomaly
279.71351°
Mean motion
3.82528 °/min
Orbital period
94.11 mins
BSTAR
0.0000027977
Loading maneuver chart data...
Computing Atmospheric mass density...
Loading historical data...
Loading historical data...
Loading historical data...
Loading historical data...
Loading historical data...
Loading historical data...
Loading historical data...

Documentation

Showing up to 5 results
|